SWA238 KDTW-KSRQ

Flight info

Callsign SWA238
Flight time N/A
Altitude 36000
Route CLVIN3 STAZE VXV THRSR HONID BANGZ1
Aircraft B738/M-SDE3FGHIRWY/LB1

Departure

Time N/A
Airport Detroit Metropolitan Wayne County Airport (KDTW)

Arrival

Time 2026-04-25 20:58
Airport Sarasota Bradenton International Airport (KSRQ)
Time Latitude Longitude Altitude Speed Heading
2026-04-25 20:07 31.71619 -84.39637 35891 ft 454 kts 185°
2026-04-25 20:07 31.65298 -84.39512 35887 ft 454 kts 184°
2026-04-25 20:08 31.59042 -84.39465 35897 ft 452 kts 185°
2026-04-25 20:08 31.52746 -84.39495 35896 ft 451 kts 186°
2026-04-25 20:09 31.46451 -84.39523 35898 ft 451 kts 185°
2026-04-25 20:09 31.40169 -84.39539 35898 ft 452 kts 185°
2026-04-25 20:10 31.33876 -84.39549 35896 ft 454 kts 185°
2026-04-25 20:10 31.27576 -84.39557 35893 ft 454 kts 185°
2026-04-25 20:11 31.21236 -84.39566 35896 ft 453 kts 185°
2026-04-25 20:11 31.14946 -84.39575 35896 ft 453 kts 185°
2026-04-25 20:12 31.08655 -84.39585 35893 ft 453 kts 185°
2026-04-25 20:12 31.03402 -84.39593 35890 ft 453 kts 185°
2026-04-25 20:13 30.96045 -84.39604 35889 ft 454 kts 185°
2026-04-25 20:13 30.89740 -84.39614 35894 ft 455 kts 185°
2026-04-25 20:14 30.83399 -84.39623 35895 ft 456 kts 185°
2026-04-25 20:14 30.77025 -84.39632 35893 ft 457 kts 185°
2026-04-25 20:15 30.70669 -84.39642 35896 ft 459 kts 185°
2026-04-25 20:15 30.64292 -84.39651 35895 ft 460 kts 185°
2026-04-25 20:16 30.57921 -84.39660 35896 ft 461 kts 185°
2026-04-25 20:16 30.51523 -84.39670 35898 ft 461 kts 185°
2026-04-25 20:17 30.45108 -84.39679 35901 ft 462 kts 185°
2026-04-25 20:17 30.38703 -84.39688 35897 ft 463 kts 185°
2026-04-25 20:18 30.32301 -84.38507 35914 ft 477 kts 159°
2026-04-25 20:18 30.29512 -84.36446 35905 ft 485 kts 143°
2026-04-25 20:18 30.26929 -84.33896 35906 ft 487 kts 142°
2026-04-25 20:19 30.21858 -84.28708 35902 ft 487 kts 141°
2026-04-25 20:19 30.16753 -84.23551 35903 ft 488 kts 142°
2026-04-25 20:20 30.11623 -84.18463 35913 ft 488 kts 142°
2026-04-25 20:20 30.06432 -84.13347 35916 ft 488 kts 142°
2026-04-25 20:21 30.01279 -84.08274 35919 ft 488 kts 142°
2026-04-25 20:21 29.96118 -84.03194 35924 ft 488 kts 142°
2026-04-25 20:22 29.92682 -83.99817 35926 ft 488 kts 142°
2026-04-25 20:22 29.85800 -83.93058 35927 ft 488 kts 142°
2026-04-25 20:23 29.80526 -83.88194 35917 ft 484 kts 152°
2026-04-25 20:23 29.74681 -83.84419 35928 ft 481 kts 155°
2026-04-25 20:24 29.68794 -83.80819 35928 ft 481 kts 155°
2026-04-25 20:24 29.62931 -83.77118 35931 ft 481 kts 154°
2026-04-25 20:25 29.57096 -83.73365 35930 ft 481 kts 154°
2026-04-25 20:25 29.51255 -83.69603 35930 ft 481 kts 154°
2026-04-25 20:26 29.45433 -83.65867 35929 ft 481 kts 154°
2026-04-25 20:26 29.39591 -83.62124 35932 ft 481 kts 154°
2026-04-25 20:27 29.33698 -83.58489 35920 ft 478 kts 162°
2026-04-25 20:27 29.30544 -83.57234 35421 ft 481 kts 167°
2026-04-25 20:27 29.27344 -83.56196 34813 ft 478 kts 168°
2026-04-25 20:28 29.24093 -83.55208 34133 ft 478 kts 168°
2026-04-25 20:28 29.20966 -83.54245 33389 ft 478 kts 167°
2026-04-25 20:28 29.17762 -83.53219 32617 ft 478 kts 167°
2026-04-25 20:28 29.14536 -83.52151 31837 ft 479 kts 166°
2026-04-25 20:29 29.11369 -83.51083 31063 ft 480 kts 166°
2026-04-25 20:29 29.08174 -83.49997 30285 ft 481 kts 166°
2026-04-25 20:29 29.06800 -83.49530 29916 ft 481 kts 166°
2026-04-25 20:29 29.03971 -83.48571 29139 ft 481 kts 166°
2026-04-25 20:30 29.00849 -83.47516 28558 ft 475 kts 166°
2026-04-25 20:30 28.97645 -83.46429 27907 ft 470 kts 165°
2026-04-25 20:30 28.94630 -83.45152 27483 ft 463 kts 159°
2026-04-25 20:30 28.91730 -83.43678 26887 ft 459 kts 157°
2026-04-25 20:31 28.88922 -83.42150 26302 ft 456 kts 156°
2026-04-25 20:31 28.86156 -83.40630 25735 ft 453 kts 156°
2026-04-25 20:31 28.83323 -83.39094 25141 ft 450 kts 156°
2026-04-25 20:31 28.80545 -83.37617 24537 ft 448 kts 157°
2026-04-25 20:32 28.77753 -83.36157 23942 ft 446 kts 157°
2026-04-25 20:32 28.74911 -83.34685 23318 ft 444 kts 157°
2026-04-25 20:32 28.72163 -83.33270 22648 ft 442 kts 157°
2026-04-25 20:32 28.69366 -83.31831 22040 ft 438 kts 157°
2026-04-25 20:33 28.66603 -83.30411 21441 ft 434 kts 157°
2026-04-25 20:33 28.63823 -83.28982 20855 ft 431 kts 157°
2026-04-25 20:33 28.61093 -83.27579 20274 ft 428 kts 158°
2026-04-25 20:33 28.60214 -83.27127 20084 ft 428 kts 158°
2026-04-25 20:34 28.55718 -83.24818 19090 ft 425 kts 158°
2026-04-25 20:34 28.53007 -83.23426 18494 ft 424 kts 158°
2026-04-25 20:34 28.50310 -83.22043 17851 ft 423 kts 158°
2026-04-25 20:34 28.47637 -83.20672 17235 ft 420 kts 158°
2026-04-25 20:35 28.44973 -83.19306 16647 ft 417 kts 158°
2026-04-25 20:35 28.42393 -83.17985 16083 ft 414 kts 158°
2026-04-25 20:35 28.39742 -83.16628 15508 ft 411 kts 158°
2026-04-25 20:35 28.37108 -83.15295 14913 ft 409 kts 158°
2026-04-25 20:36 28.34542 -83.14016 14371 ft 407 kts 158°
2026-04-25 20:36 28.31958 -83.12731 13804 ft 405 kts 158°
2026-04-25 20:36 28.29390 -83.11452 13209 ft 402 kts 158°
2026-04-25 20:36 28.26949 -83.09922 12779 ft 396 kts 142°
2026-04-25 20:37 28.24918 -83.07892 12631 ft 385 kts 138°
2026-04-25 20:37 28.22952 -83.05898 12399 ft 378 kts 139°
2026-04-25 20:37 28.20889 -83.03925 12213 ft 384 kts 147°
2026-04-25 20:37 28.18523 -83.02683 12017 ft 384 kts 167°
2026-04-25 20:38 28.15885 -83.02329 11842 ft 378 kts 180°
2026-04-25 20:38 28.13267 -83.02224 11651 ft 376 kts 181°
2026-04-25 20:38 28.10618 -83.02146 11455 ft 375 kts 181°
2026-04-25 20:38 28.08109 -83.02068 11272 ft 374 kts 180°
2026-04-25 20:39 28.05694 -83.01984 11088 ft 372 kts 180°
2026-04-25 20:39 28.03161 -83.01884 10902 ft 363 kts 180°
2026-04-25 20:39 28.00691 -83.01780 10695 ft 352 kts 180°
2026-04-25 20:39 27.99859 -83.01743 10629 ft 348 kts 180°
2026-04-25 20:40 27.96005 -83.01573 10341 ft 332 kts 180°
2026-04-25 20:40 27.93734 -83.01472 10170 ft 323 kts 180°
2026-04-25 20:40 27.91512 -83.01374 10007 ft 315 kts 179°
2026-04-25 20:40 27.89351 -83.01278 9953 ft 303 kts 180°
2026-04-25 20:41 27.87328 -83.01188 9922 ft 291 kts 180°
2026-04-25 20:41 27.85295 -83.01099 9541 ft 292 kts 179°
2026-04-25 20:41 27.83307 -83.01011 9382 ft 285 kts 179°
2026-04-25 20:41 27.81346 -83.00924 9216 ft 280 kts 179°
2026-04-25 20:42 27.80040 -83.00851 9113 ft 279 kts 175°
2026-04-25 20:42 27.78212 -83.00117 8960 ft 280 kts 147°
2026-04-25 20:42 27.76770 -82.98643 8853 ft 280 kts 133°
2026-04-25 20:42 27.75478 -82.97025 8693 ft 282 kts 132°
2026-04-25 20:43 27.74160 -82.95367 8544 ft 285 kts 133°
2026-04-25 20:43 27.72811 -82.93694 8372 ft 286 kts 133°
2026-04-25 20:43 27.71477 -82.92056 8231 ft 287 kts 133°
2026-04-25 20:43 27.70108 -82.90383 8069 ft 283 kts 134°
2026-04-25 20:44 27.68880 -82.88703 7907 ft 279 kts 126°
2026-04-25 20:44 27.67802 -82.86881 7772 ft 275 kts 123°
2026-04-25 20:44 27.66797 -82.85091 7634 ft 273 kts 123°
2026-04-25 20:44 27.65893 -82.83477 7505 ft 272 kts 123°
2026-04-25 20:45 27.64876 -82.81676 7348 ft 272 kts 124°
2026-04-25 20:45 27.63844 -82.79864 7227 ft 271 kts 124°
2026-04-25 20:45 27.62820 -82.78075 7080 ft 271 kts 124°
2026-04-25 20:45 27.61800 -82.76305 6945 ft 270 kts 124°
2026-04-25 20:46 27.60774 -82.74529 6801 ft 270 kts 124°
2026-04-25 20:46 27.59746 -82.72754 6660 ft 270 kts 124°
2026-04-25 20:46 27.58719 -82.70983 6519 ft 270 kts 124°
2026-04-25 20:46 27.57693 -82.69216 6374 ft 269 kts 124°
2026-04-25 20:47 27.56670 -82.67457 6222 ft 268 kts 124°
2026-04-25 20:47 27.55646 -82.65694 6097 ft 267 kts 124°
2026-04-25 20:47 27.54633 -82.63950 6009 ft 264 kts 124°
2026-04-25 20:47 27.53632 -82.62229 6001 ft 261 kts 124°
2026-04-25 20:48 27.52645 -82.60532 5985 ft 255 kts 124°
2026-04-25 20:48 27.51707 -82.58923 5996 ft 244 kts 124°
2026-04-25 20:48 27.50789 -82.57349 5971 ft 234 kts 124°
2026-04-25 20:48 27.49925 -82.55864 5982 ft 221 kts 124°
2026-04-25 20:49 27.49088 -82.54428 5998 ft 219 kts 124°
2026-04-25 20:49 27.48248 -82.52993 6001 ft 221 kts 124°
2026-04-25 20:49 27.47406 -82.51552 6010 ft 225 kts 124°
2026-04-25 20:49 27.46531 -82.50075 5975 ft 226 kts 128°
2026-04-25 20:50 27.45498 -82.48743 5721 ft 227 kts 135°
2026-04-25 20:50 27.44374 -82.47451 5265 ft 238 kts 136°
2026-04-25 20:50 27.43176 -82.46089 4952 ft 241 kts 136°
2026-04-25 20:50 27.42032 -82.44777 4837 ft 228 kts 136°
2026-04-25 20:51 27.40957 -82.43534 4775 ft 216 kts 136°
2026-04-25 20:51 27.39938 -82.42353 4669 ft 204 kts 136°
2026-04-25 20:51 27.38990 -82.41250 4544 ft 191 kts 136°
2026-04-25 20:51 27.38063 -82.40169 4210 ft 191 kts 136°
2026-04-25 20:52 27.37160 -82.39116 3999 ft 185 kts 136°
2026-04-25 20:52 27.36571 -82.38428 3936 ft 182 kts 136°
2026-04-25 20:52 27.35376 -82.37037 3798 ft 186 kts 136°
2026-04-25 20:52 27.34294 -82.36374 3568 ft 181 kts 179°
2026-04-25 20:53 27.33127 -82.36760 3313 ft 178 kts 212°
2026-04-25 20:53 27.32117 -82.37562 3147 ft 175 kts 218°
2026-04-25 20:53 27.31267 -82.38599 2799 ft 188 kts 234°
2026-04-25 20:53 27.30633 -82.39877 2561 ft 189 kts 245°
2026-04-25 20:54 27.30275 -82.41340 2127 ft 195 kts 264°
2026-04-25 20:54 27.30398 -82.42849 1736 ft 190 kts 284°
2026-04-25 20:54 27.30793 -82.44136 1675 ft 162 kts 291°
2026-04-25 20:54 27.31320 -82.45210 1525 ft 156 kts 300°
2026-04-25 20:55 27.31916 -82.46226 1409 ft 154 kts 304°
2026-04-25 20:55 27.32642 -82.47111 1278 ft 160 kts 311°
2026-04-25 20:55 27.33321 -82.48059 1231 ft 152 kts 303°
2026-04-25 20:55 27.33950 -82.48999 1152 ft 151 kts 305°
2026-04-25 20:56 27.34619 -82.49845 1003 ft 145 kts 310°
2026-04-25 20:56 27.35326 -82.50680 881 ft 145 kts 313°
2026-04-25 20:56 27.36035 -82.51483 701 ft 145 kts 310°
2026-04-25 20:56 27.36746 -82.52290 543 ft 148 kts 309°
2026-04-25 20:57 27.37442 -82.53067 333 ft 140 kts 311°
2026-04-25 20:57 27.38098 -82.53845 219 ft 132 kts 309°
2026-04-25 20:57 27.38723 -82.54574 74 ft 129 kts 309°
2026-04-25 20:57 27.39312 -82.55251 28 ft 106 kts 318°
2026-04-25 20:58 27.39727 -82.55724 29 ft 63 kts 316°
2026-04-25 20:58 27.39921 -82.55943 27 ft 22 kts 312°
2026-04-25 20:58 27.39911 -82.56056 29 ft 13 kts 193°
2026-04-25 20:58 27.39833 -82.56017 29 ft 13 kts 139°
2026-04-25 20:59 27.39770 -82.55946 30 ft 13 kts 134°
2026-04-25 20:59 27.39710 -82.55877 29 ft 12 kts 135°
2026-04-25 20:59 27.39649 -82.55812 28 ft 12 kts 136°
2026-04-25 20:59 27.39591 -82.55748 30 ft 12 kts 136°
2026-04-25 21:00 27.39544 -82.55697 30 ft 11 kts 133°
2026-04-25 21:00 27.39526 -82.55675 29 ft 11 kts 133°
2026-04-25 21:00 27.39388 -82.55511 30 ft 11 kts 134°
2026-04-25 21:01 27.39349 -82.55465 29 ft 3 kts 134°
2026-04-25 21:01 27.39342 -82.55457 29 ft 0 kts 134°
2026-04-25 21:01 27.39339 -82.55454 29 ft 1 kts 134°
2026-04-25 21:01 27.39335 -82.55449 29 ft 1 kts 134°
2026-04-25 21:02 27.39330 -82.55443 29 ft 1 kts 134°
2026-04-25 21:02 27.39324 -82.55437 29 ft 2 kts 134°
2026-04-25 21:02 27.39314 -82.55425 29 ft 4 kts 134°
2026-04-25 21:02 27.39278 -82.55404 30 ft 9 kts 169°
2026-04-25 21:03 27.39207 -82.55430 30 ft 12 kts 216°
2026-04-25 21:03 27.39142 -82.55482 30 ft 10 kts 212°
2026-04-25 21:03 27.39081 -82.55524 30 ft 10 kts 212°
2026-04-25 21:03 27.39020 -82.55551 30 ft 9 kts 193°
2026-04-25 21:04 27.38965 -82.55531 30 ft 8 kts 130°
2026-04-25 21:04 27.38955 -82.55470 30 ft 8 kts 95°
2026-04-25 21:04 27.38951 -82.55423 30 ft 0 kts 97°